Location: Lalouret
(43.1848°N, 0.7029°E)
Time: 15:51:38
(UTC+00:00)

Daily predictions for brighter satellites

Satellite Brightness Start Highest point End
(mag) Time Altitude Azimuth Time Altitude Azimuth Time Altitude Azimuth
Meteor 1-20 Rocket 4.2 18:08:17 10° S 18:13:40 64° E 18:19:05 10° NNE
Cosmos 1302 Rocket 4.1 18:08:43 10° SSW 18:13:55 85° WNW 18:19:09 10° NNE
SL-4 R/B 3.5 18:12:12 10° NW 18:14:58 20° N 18:17:38 10° NE
CSL-04 DEB 4.4 18:16:01 10° NNE 18:20:00 87° WNW 18:24:00 10° SSW
ATLAS CENTAUR R/B 2.0 18:19:27 10° S 18:22:34 27° ESE 18:25:42 10° ENE
Okean-O 2.7 18:23:07 10° SSE 18:27:27 56° ENE 18:31:48 10° N
Cosmos 44 Rocket 3.5 18:22:40 10° NNW 18:27:52 60° NE 18:32:59 10° SE
CSL-04 Rocket 4.2 18:23:47 10° SE 18:28:54 40° ENE 18:34:00 10° N
ERS-2 2.5 18:25:46 10° NNE 18:29:14 40° E 18:32:41 10° S
Cosmos 2084 Rocket 4.0 18:26:00 10° NNW 18:30:10 43° NE 18:34:27 10° ESE
Cosmos 1844 Rocket 3.4 18:25:16 10° N 18:30:16 32° NE 18:35:13 10° ESE
SAR-Lupe-1 4.5 18:27:58 10° NNE 18:31:23 40° E 18:34:46 10° S
Cosmos 1666 4.2 18:30:36 10° SE 18:32:50 15° E 18:35:05 10° NE
Cosmos 1271 Rocket 3.3 18:31:16 10° NNW 18:34:58 59° W 18:38:39 10° S
HJ-1C 3.8 18:32:15 10° SE 18:35:24 40° ENE 18:38:32 10° N
Cosmos 1503 Rocket 4.3 18:32:04 10° N 18:37:02 43° ENE 18:41:56 10° SE
H-2A R/B 4.5 18:34:37 10° NNW 18:37:58 25° WNW 18:41:18 10° WSW
PSLV R/B 3.8 18:36:18 10° NNE 18:40:24 74° ESE 18:44:26 10° S
Cosmos 1470 Rocket 3.6 18:36:13 10° S 18:40:36 59° E 18:45:00 10° NNE
Cosmos 1844 4.4 18:36:50 10° N 18:42:05 34° NE 18:46:58 11° ESE
Cosmos 2360 Rocket 2.4 18:37:31 10° S 18:42:56 50° ESE 18:48:24 10° NE
CZ-4B R/B 3.2 18:41:30 10° N 18:44:16 32° WNW 18:47:03 10° SW
Cosmos 1602 3.9 18:40:24 10° SSW 18:44:16 78° W 18:48:12 10° N
Ariane Rocket 4.4 18:42:04 14° E 18:44:34 19° ENE 18:48:04 10° NNE
Cosmos 2278 Rocket 4.2 18:45:17 10° NNE 18:46:47 11° NE 18:48:16 10° NE
Meteor 1-19 Rocket 4.3 18:44:12 10° N 18:50:10 83° E 18:55:55 10° SSE
Cosmos 1500 3.1 18:47:42 10° S 18:51:21 55° E 18:55:01 10° NNE
Cosmos 2333 Rocket 3.1 18:48:38 10° SSE 18:53:14 26° ESE 18:57:53 10° NE
Meteor 2-4 Rocket 3.9 18:48:58 10° N 18:54:42 54° ENE 19:00:29 10° SSE
Cosmos 1703 Rocket 4.1 18:50:49 10° N 18:54:53 36° ENE 18:58:54 10° SE
DMSP B5D1-3 4.5 18:50:22 10° NNE 18:55:33 83° ESE 19:00:43 10° SSW
SL-08 RB Rocket 3.7 18:51:37 10° SSE 18:56:01 58° ENE 19:00:30 10° N
Meteor 2-12 Rocket 4.4 18:50:41 10° S 18:56:42 77° E 19:02:48 10° N
Cosmos 1689 Rocket 2.2 18:54:51 10° N 18:57:43 71° WNW 19:00:34 10° SSW
Cosmos 1933 Rocket 3.5 18:57:13 10° S 19:01:31 65° E 19:05:52 10° NNE
BREEZE-M DEB (TANK) 3.6 19:01:31 10° SSW 19:03:36 26° SE 19:03:36 26° SE
Aureole 2 Rocket 1.5 19:02:59 10° NNW 19:05:30 83° WSW 19:06:52 23° SSE
Cosmos 1862 Rocket 4.3 19:02:35 10° NNW 19:06:59 57° W 19:11:22 10° S
Resurs 01 Rocket 3.8 19:12:40 12° NE 19:12:40 12° NE 19:13:18 10° NNE
Cosmos 2322 Rocket 2.9 19:07:27 10° SW 19:12:56 55° WNW 19:18:27 10° NNE
Cosmos 2242 Rocket 3.5 19:08:32 10° N 19:13:01 65° E 19:17:26 10° SSE
Lacrosse 4 Rocket 2.4 19:11:17 10° SSE 19:14:29 27° ESE 19:14:29 27° ESE
Abrixas rocket 3.3 19:13:51 10° WNW 19:15:56 23° N 19:16:07 22° N
Helios 1A Rocket 3.3 19:14:25 10° S 19:18:26 64° WSW 19:22:27 10° NNW
YAOGAN 1 4.1 19:15:14 10° SSW 19:19:15 38° W 19:23:18 10° NNW
SME Rocket 4.3 19:12:09 10° NNE 19:19:34 46° E 19:24:30 10° S
COSMOS 2428 3.3 19:18:11 10° SSE 19:23:12 33° ESE 19:24:51 28° ENE
SJ-6B 3.2 19:22:30 39° ESE 19:23:18 44° ENE 19:27:10 10° N
GP-B 3.2 19:22:49 10° S 19:27:15 78° W 19:31:43 10° N
ASTEX 1 3.6 19:23:57 10° NNE 19:28:36 42° E 19:30:11 32° SE
Cosmos 2219 Rocket 2.4 19:24:49 10° S 19:30:06 45° ESE 19:35:25 10° NE
Meteor 1-11 Rocket 3.8 19:25:01 10° SSE 19:30:32 50° E 19:35:57 10° NNE
MetOp-A 4.0 19:26:57 10° SSE 19:32:14 74° ENE 19:37:36 10° N
OBJECT-B 2.6 19:36:24 21° N 19:36:24 21° N 19:37:41 10° N
ARGOS 4.3 19:31:24 10° S 19:36:33 44° W 19:41:45 10° NNW
SL-16 R/B 4.1 19:32:56 10° WSW 19:37:51 30° NW 19:42:49 10° N
SJ 16-02 3.2 19:37:47 10° N 19:39:35 18° NNE 19:39:35 18° NNE
SeaSat 1 3.3 19:37:13 10° NNE 19:42:00 51° WNW 19:46:45 10° SW
Okean 1-7 3.2 19:37:48 10° NNW 19:42:10 74° W 19:45:45 15° S
CZ-4 R/B 4.4 19:40:29 10° SW 19:42:52 16° W 19:45:16 10° NW
Cosmos 1066 Rocket 4.3 19:38:49 10° N 19:44:25 53° ENE 19:45:41 45° ESE
Meteor 1-13 Rocket 4.2 19:38:55 10° N 19:44:53 75° E 19:48:31 24° SSE
USA 234 3.2 19:39:54 18° NE 19:45:02 87° SE 19:51:35 10° SW
H-2A R/B 4.4 19:42:51 10° SSW 19:47:16 25° W 19:51:44 10° NW
IRS-1A Rocket 4.1 19:46:43 36° SE 19:49:07 71° ENE 19:54:40 10° N
CZ-2C R/B 3.6 19:44:32 10° N 19:49:47 47° WNW 19:54:53 10° SW
Cosmos 2322 3.6 19:44:19 10° SSW 19:50:02 84° ESE 19:55:48 10° NNE
BREEZE-M DEB (TANK) 3.4 19:48:14 10° NW 19:50:54 37° NNE 19:51:09 37° NNE
SL-4 R/B 3.1 19:51:58 10° NW 19:54:12 29° NNW 19:54:12 29° NNW
DMSP B5D2-2 4.5 19:50:30 10° N 19:55:40 63° WNW 20:00:47 10° SSW
Cosmos 1869 Rocket 3.6 19:51:28 10° SSW 19:55:48 78° W 20:00:13 10° N
SL-8 Rocket 4.1 19:51:58 10° SSW 19:58:12 74° W 20:04:25 10° N
FALCON 9 DEB 4.4 19:57:06 10° WNW 19:59:26 40° WNW 19:59:26 40° WNW
ATLAS CENTAUR R/B 3.2 19:58:21 10° WSW 20:01:23 25° NW 20:03:10 17° N
Cosmos 1666 4.3 20:04:42 10° SW 20:08:05 33° WNW 20:11:30 10° N
Cosmos 2366 rocket 4.2 20:06:58 10° SSW 20:13:14 70° W 20:19:36 10° N
Cosmos 1844 Rocket 3.9 20:09:04 10° NW 20:14:11 39° WSW 20:17:54 17° SSW
SL-08 R/B 4.4 20:11:58 43° SSE 20:14:15 74° E 20:20:43 10° NNE
SPOT 3 Rocket 4.3 20:18:38 42° NNE 20:18:38 42° NNE 20:22:15 10° N
Cosmos 1777 Rocket 4.2 20:12:26 10° NNW 20:17:38 65° WSW 20:18:17 59° SW
Okean 3 4.4 20:16:10 10° NNW 20:19:31 47° NW 20:19:31 47° NW
Ariane Rocket 3.4 20:22:15 53° SW 20:23:03 60° WSW 20:28:07 10° NNW
Cosmos 2360 Rocket 4.1 20:22:26 10° WSW 20:27:11 27° NW 20:31:59 10° N
Cosmos 2278 Rocket 3.1 20:26:38 10° NNW 20:30:28 39° N 20:30:28 39° N
Cosmos 1727 Rocket 4.1 20:30:49 10° NNW 20:36:58 69° W 20:37:44 62° SW
Cosmos 2333 Rocket 3.1 20:31:43 10° SW 20:37:11 48° WNW 20:42:44 10° NNE
Meteor 2-20 4.5 20:32:11 10° NNW 20:38:13 76° W 20:38:13 76° W
Resurs 01 Rocket 3.9 20:50:14 19° NNW 20:50:14 19° NNW 20:51:35 10° NNW
Lacrosse 4 Rocket 4.0 20:49:38 10° WSW 20:50:57 18° WSW 20:50:57 18° WSW
COSMOS 2428 3.9 21:02:06 10° SW 21:14:01 - NNE 21:07:14 38° WNW
Cosmos 2219 Rocket 3.9 21:09:24 10° WSW 21:14:13 29° NW 21:19:05 10° N
SJ 16-02 4.3 21:15:55 10° NW 21:16:35 14° NW 21:16:35 14° NW
USA 234 4.3 21:27:15 38° NNW 21:27:38 38° NNW 21:33:33 10° W
